�N����,����,�~����,�C��,���x,�C��,����,���ϕ���,�ő�u�ԕ���,�ő厞����,���˗�,�I�_���x,�n�����x,�ő啗���N��,DTYPE
"17/09/12","00:10",0.0,22.4,92.6,1002.6,304.0,0.8,1.4,316.0,0.00,21.2,24.2,"00:09:28",1
"17/09/12","00:20",0.0,22.4,92.6,1002.2,282.6,0.8,1.7,318.5,0.00,21.2,24.2,"00:19:44",1
"17/09/12","00:30",0.0,22.3,92.7,1002.6,297.4,1.2,1.8,314.6,0.00,21.1,24.1,"00:20:48",1
"17/09/12","00:40",0.0,22.3,92.7,1002.6,300.4,1.0,1.6,338.7,0.00,21.1,24.1,"00:39:28",1
"17/09/12","00:50",0.0,22.4,92.8,1002.6,326.7,1.2,1.8,330.9,0.00,21.2,24.0,"00:47:52",1
"17/09/12","01:00",0.0,22.4,92.8,1002.6,302.2,1.0,1.2,322.7,0.00,21.2,23.9,"00:50:16",1
"17/09/12","01:10",0.0,22.3,92.7,1002.6,299.8,1.2,2.0,328.4,0.00,21.1,24.1,"01:04:00",1
"17/09/12","01:20",0.0,22.4,92.6,1002.2,290.6,1.0,1.3,277.3,0.00,21.2,24.0,"01:11:04",1
"17/09/12","01:30",0.0,22.5,92.6,1002.4,329.4,1.3,1.8,330.5,0.00,21.3,24.0,"01:20:56",1
"17/09/12","01:40",0.0,22.4,92.7,1002.4,319.3,1.1,1.9,315.5,0.00,21.2,23.9,"01:31:20",1
"17/09/12","01:50",0.0,22.5,92.7,1002.2,297.6,1.0,1.7,322.8,0.00,21.3,23.9,"01:49:52",1
"17/09/12","02:00",0.0,22.3,92.8,1002.2,309.3,1.3,2.0,330.0,0.00,21.1,24.1,"01:51:36",1
"17/09/12","02:10",0.0,22.3,92.9,1002.2,284.4,1.0,1.6,306.7,0.00,21.1,23.9,"02:01:52",1
"17/09/12","02:20",0.2,22.3,92.9,1001.9,305.6,1.1,1.7,302.3,0.00,21.1,23.9,"02:12:56",1
"17/09/12","02:30",0.2,22.3,93.1,1002.2,311.2,1.0,1.7,328.8,0.00,21.2,23.9,"02:24:00",1
"17/09/12","02:40",0.0,22.2,93.0,1002.4,272.9,0.7,1.9,232.8,0.00,21.1,23.8,"02:35:36",1
"17/09/12","02:50",0.4,22.2,93.2,1002.2,297.4,0.3,1.1,271.5,0.00,21.1,23.8,"02:40:08",1
"17/09/12","03:00",0.2,22.2,93.4,1001.9,274.2,0.6,0.9,325.6,0.00,21.1,23.9,"02:51:36",1
"17/09/12","03:10",0.6,22.1,93.6,1001.9,324.7,0.6,1.0,266.8,0.00,21.1,23.7,"03:02:32",1
"17/09/12","03:20",0.2,22.1,93.8,1001.9,310.3,0.6,1.3,355.7,0.00,21.1,23.9,"03:12:08",1
"17/09/12","03:30",0.2,22.0,94.0,1002.2,299.3,0.6,1.0,335.5,0.00,21.0,23.8,"03:25:04",1
"17/09/12","03:40",0.0,22.0,94.1,1002.4,272.9,0.6,1.2,233.6,0.00,21.0,23.9,"03:30:24",1
"17/09/12","03:50",0.0,21.9,94.2,1001.7,291.3,0.3,1.1,244.2,0.00,21.0,23.8,"03:42:00",1
"17/09/12","04:00",0.4,21.9,94.4,1002.2,304.1,0.5,1.1,336.3,0.00,21.0,23.9,"03:59:20",1
"17/09/12","04:10",0.8,21.9,94.5,1001.9,333.4,0.8,1.3,353.0,0.00,21.0,23.8,"04:05:20",1
"17/09/12","04:20",0.8,21.9,94.6,1001.7,309.8,0.7,1.4,335.1,0.00,21.0,23.9,"04:10:16",1
"17/09/12","04:30",1.4,21.8,94.6,1001.2,322.9,0.7,1.3,324.0,0.00,20.9,23.7,"04:28:48",1
"17/09/12","04:40",0.8,21.7,94.8,1001.5,282.5,0.7,1.6,291.8,0.00,20.9,23.6,"04:38:32",1
"17/09/12","04:50",6.0,21.6,94.8,1001.9,324.6,1.5,2.6,337.5,0.00,20.8,23.6,"04:44:44",1
"17/09/12","05:00",5.2,21.5,94.9,1001.9,310.5,1.3,3.1,318.8,0.00,20.7,23.4,"04:55:28",1
"17/09/12","05:10",3.8,21.5,95.1,1001.5,210.4,0.6,1.4,215.9,0.00,20.7,23.3,"05:09:36",1
"17/09/12","05:20",9.2,21.4,95.2,1001.7,314.6,1.1,2.2,340.6,0.00,20.6,22.8,"05:16:48",1
"17/09/12","05:30",4.0,21.4,95.4,1001.5,179.8,1.1,2.4,210.8,0.00,20.7,22.9,"05:27:20",1
"17/09/12","05:40",4.8,21.3,95.4,1001.9,308.1,0.5,1.2,345.4,0.00,20.6,22.8,"05:37:52",1
"17/09/12","05:50",4.4,21.3,95.6,1002.4,305.9,1.0,1.6,304.4,0.00,20.6,22.8,"05:46:26",1
"17/09/12","06:00",6.2,21.4,95.7,1001.7,316.3,1.2,2.5,343.0,0.00,20.7,22.9,"05:56:12",1
"17/09/12","06:10",1.8,21.3,95.8,1002.2,258.2,0.6,1.2,248.1,0.00,20.6,22.6,"06:09:42",1
"17/09/12","06:20",1.2,21.4,95.9,1001.9,256.8,0.7,1.2,231.9,0.00,20.8,22.7,"06:14:40",1
"17/09/12","06:30",1.2,21.5,96.0,1002.4,234.0,0.5,1.0,243.9,0.00,20.9,22.7,"06:20:24",1
"17/09/12","06:40",0.6,21.6,96.1,1002.4,179.6,0.3,0.8,205.9,0.00,21.0,22.8,"06:30:56",1
"17/09/12","06:50",0.4,21.7,96.1,1002.4,239.3,0.2,0.9,241.0,0.00,21.1,22.7,"06:42:16",1
"17/09/12","07:00",0.4,21.8,96.1,1002.4,310.4,0.6,1.2,326.9,0.00,21.2,22.7,"06:52:40",1
"17/09/12","07:10",1.0,21.8,96.0,1002.9,323.4,0.7,1.6,342.8,0.00,21.2,22.7,"07:00:32",1
"17/09/12","07:20",0.8,21.9,96.1,1003.1,284.8,0.5,0.8,297.8,0.00,21.3,22.7,"07:15:28",1
"17/09/12","07:30",0.6,21.9,96.1,1002.6,185.1,0.3,0.8,215.0,0.00,21.3,22.8,"07:24:48",1
"17/09/12","07:40",0.4,22.0,96.2,1003.1,250.4,0.3,0.9,296.8,0.01,21.4,22.7,"07:39:44",1
"17/09/12","07:50",0.8,22.1,96.2,1002.6,339.4,0.7,1.1,326.0,0.00,21.5,22.8,"07:41:20",1
"17/09/12","08:00",0.6,22.1,96.2,1003.1,319.6,0.6,1.1,342.8,0.00,21.5,22.7,"07:52:32",1
"17/09/12","08:10",0.4,22.1,96.2,1003.1,330.1,0.7,1.2,342.4,0.01,21.5,23.0,"08:02:24",1
"17/09/12","08:20",0.4,22.4,96.2,1003.4,341.7,0.7,1.2,357.8,0.04,21.8,23.0,"08:15:52",1
"17/09/12","08:30",0.0,22.4,96.1,1003.6,342.6,1.0,1.7,331.3,0.04,21.8,22.9,"08:25:04",1
"17/09/12","08:40",0.2,22.5,96.0,1003.8,341.8,0.6,1.3,337.4,0.02,21.9,23.0,"08:39:36",1
"17/09/12","08:50",0.6,22.5,96.1,1003.6,340.7,0.6,1.7,343.3,0.01,21.9,23.0,"08:42:48",1
"17/09/12","09:00",0.6,22.6,96.2,1003.6,327.1,0.7,1.2,343.2,0.02,22.0,22.9,"08:56:56",1
"17/09/12","09:10",0.0,22.8,96.3,1003.6,321.4,0.5,1.1,336.5,0.03,22.2,23.1,"09:01:28",1
"17/09/12","09:20",0.0,23.1,96.1,1003.8,303.4,0.3,0.9,317.4,0.07,22.5,23.0,"09:12:24",1
"17/09/12","09:30",0.0,23.4,96.0,1004.1,239.9,0.3,1.0,232.3,0.07,22.8,23.1,"09:24:56",1
"17/09/12","09:40",0.0,23.3,95.7,1004.3,182.8,0.3,0.8,205.8,0.03,22.6,22.9,"09:38:32",1
"17/09/12","09:50",0.0,23.2,95.7,1004.1,101.3,0.3,0.9,343.4,0.01,22.5,23.2,"09:40:02",1
"17/09/12","10:00",1.4,23.2,95.8,1004.3,333.7,0.5,1.0,342.1,0.00,22.5,23.2,"09:52:08",1
"17/09/12","10:10",1.6,23.1,95.7,1004.5,9.1,0.7,1.6,344.9,0.00,22.4,23.2,"10:07:52",1
"17/09/12","10:20",1.0,23.3,95.9,1004.5,279.4,0.5,1.1,341.9,0.03,22.6,23.1,"10:15:28",1
"17/09/12","10:30",0.2,23.6,95.7,1004.3,219.1,0.3,0.8,223.9,0.08,22.9,23.2,"10:20:24",1
"17/09/12","10:40",0.0,23.8,95.4,1004.5,195.0,0.6,1.4,220.2,0.11,23.1,23.4,"10:36:08",1
"17/09/12","10:50",0.0,23.9,94.9,1004.3,178.6,0.3,1.1,202.5,0.11,23.1,23.5,"10:40:24",1
"17/09/12","11:00",0.6,24.0,94.6,1004.3,211.0,0.5,0.9,212.8,0.11,23.1,23.4,"10:51:12",1
"17/09/12","11:10",0.0,24.3,94.0,1004.1,154.4,0.2,0.6,106.2,0.09,23.3,23.5,"11:00:16",1
"17/09/12","11:20",0.0,24.3,93.6,1004.3,278.4,0.2,0.8,308.7,0.10,23.2,23.6,"11:16:40",1
"17/09/12","11:30",0.0,24.6,92.8,1003.6,349.0,0.6,1.1,344.3,0.16,23.4,23.6,"11:27:12",1
"17/09/12","11:40",0.0,25.0,91.0,1003.8,297.4,0.3,1.0,251.7,0.19,23.5,23.7,"11:35:20",1
"17/09/12","11:50",0.0,25.4,90.4,1003.6,214.5,0.2,0.6,112.7,0.16,23.8,23.8,"11:47:04",1
"17/09/12","12:00",0.0,25.4,90.8,1003.4,265.4,0.2,0.5,253.0,0.10,23.8,24.1,"11:50:48",1
"17/09/12","12:10",0.2,25.4,90.3,1003.6,131.4,0.2,0.8,112.5,0.08,23.7,24.0,"12:04:40",1
"17/09/12","12:20",0.0,25.3,90.4,1003.6,228.6,0.7,1.8,213.1,0.08,23.7,23.8,"12:18:08",1
"17/09/12","12:30",0.0,25.2,91.0,1003.8,160.0,0.3,1.3,230.9,0.07,23.7,23.9,"12:20:08",1
"17/09/12","12:40",0.0,25.4,91.1,1004.3,4.4,0.5,1.4,357.1,0.08,23.9,24.1,"12:38:32",1
"17/09/12","12:50",0.0,25.6,90.7,1004.1,1.1,0.6,1.3,343.9,0.07,24.0,24.1,"12:49:36",1
"17/09/12","13:00",0.0,25.7,91.1,1004.1,358.2,0.8,1.6,355.3,0.09,24.2,24.2,"12:50:24",1
"17/09/12","13:10",0.0,25.9,89.8,1003.8,358.2,0.7,1.7,72.0,0.17,24.1,24.1,"13:09:56",1
"17/09/12","13:20",0.0,26.1,88.5,1004.1,23.0,0.3,1.2,42.1,0.16,24.1,24.5,"13:10:08",1
"17/09/12","13:30",0.0,26.3,88.4,1003.6,98.4,0.2,0.9,156.8,0.13,24.3,24.2,"13:24:56",1
"17/09/12","13:40",0.0,26.3,87.5,1004.1,329.2,0.6,1.1,329.9,0.07,24.1,24.3,"13:32:56",1
"17/09/12","13:50",0.0,26.3,87.3,1004.1,337.3,0.8,1.9,343.6,0.08,24.1,24.4,"13:45:12",1
"17/09/12","14:00",0.0,26.3,87.3,1004.3,324.0,0.7,1.2,344.7,0.08,24.1,24.5,"13:52:32",1
"17/09/12","14:10",0.0,26.3,86.9,1004.1,328.5,0.7,1.6,327.1,0.09,24.0,24.5,"14:08:24",1
"17/09/12","14:20",0.0,26.4,86.4,1003.6,214.8,0.5,1.6,331.7,0.11,24.0,24.4,"14:11:04",1
"17/09/12","14:30",0.0,26.9,85.3,1003.8,253.5,0.2,0.9,234.0,0.20,24.3,24.6,"14:26:32",1
"17/09/12","14:40",0.0,27.8,81.6,1003.4,327.1,0.8,2.1,344.1,0.37,24.4,24.8,"14:36:32",1
"17/09/12","14:50",0.0,28.4,76.9,1002.6,2.6,0.7,1.7,339.9,0.33,24.0,24.7,"14:43:44",1
"17/09/12","15:00",0.0,27.8,77.5,1002.6,341.8,0.7,1.7,226.5,0.16,23.5,24.8,"14:59:28",1
"17/09/12","15:10",0.0,27.6,80.9,1003.1,223.7,0.8,2.2,221.2,0.15,24.1,25.0,"15:04:32",1
"17/09/12","15:20",0.0,27.2,80.3,1003.8,238.0,1.2,3.3,233.6,0.11,23.6,24.8,"15:11:04",1
"17/09/12","15:30",0.0,27.2,79.6,1003.6,269.2,0.8,1.6,226.5,0.07,23.4,25.0,"15:23:12",1
"17/09/12","15:40",0.0,27.2,81.0,1003.6,253.1,0.7,2.1,229.5,0.07,23.7,25.1,"15:31:20",1
"17/09/12","15:50",0.0,27.2,80.7,1003.6,259.6,0.8,2.5,224.2,0.06,23.6,25.2,"15:43:04",1
"17/09/12","16:00",0.0,26.9,81.0,1004.1,297.2,0.6,1.4,312.0,0.00,23.4,25.2,"15:58:40",1
"17/09/12","16:10",0.0,26.4,82.8,1004.3,325.5,0.8,1.7,320.4,0.00,23.3,25.2,"16:05:28",1
"17/09/12","16:20",0.0,26.4,84.2,1003.8,304.9,0.7,1.7,338.5,0.02,23.6,25.0,"16:10:24",1
"17/09/12","16:30",0.0,26.3,84.6,1003.8,276.5,0.3,1.1,273.6,0.02,23.5,25.2,"16:28:32",1
"17/09/12","16:40",0.0,26.0,86.0,1004.3,269.4,0.5,2.2,235.9,0.03,23.5,25.1,"16:32:32",1
"17/09/12","16:50",0.0,26.1,86.4,1003.8,356.9,0.5,1.1,33.9,0.03,23.7,25.1,"16:41:44",1
"17/09/12","17:00",0.0,26.0,87.4,1004.3,291.7,0.6,1.4,347.0,0.00,23.8,25.0,"16:50:48",1
"17/09/12","17:10",0.0,25.4,86.9,1004.3,316.0,1.1,2.7,338.9,0.00,23.1,24.9,"17:08:00",1
"17/09/12","17:20",0.2,25.1,87.0,1004.3,343.0,1.1,2.2,344.9,0.00,22.8,24.6,"17:19:52",1
"17/09/12","17:30",0.2,24.6,87.9,1004.1,328.1,1.3,2.6,324.6,0.00,22.5,24.8,"17:28:16",1
"17/09/12","17:40",0.2,24.4,89.0,1004.8,275.8,0.7,2.0,327.9,0.00,22.5,24.7,"17:31:12",1
"17/09/12","17:50",0.0,24.2,89.8,1005.0,300.8,0.5,1.2,340.9,0.00,22.5,24.7,"17:48:40",1
"17/09/12","18:00",0.0,24.1,90.8,1005.0,6.8,0.3,1.0,328.8,0.00,22.5,24.6,"17:50:24",1
"17/09/12","18:10",0.0,23.9,91.1,1005.2,350.3,0.7,1.6,351.4,0.00,22.4,24.7,"18:05:04",1
"17/09/12","18:20",0.0,23.7,91.7,1005.5,298.1,0.7,2.0,335.1,0.00,22.3,24.5,"18:11:12",1
"17/09/12","18:30",0.0,23.5,92.3,1005.2,305.7,0.6,1.1,313.2,0.00,22.2,24.7,"18:20:56",1
"17/09/12","18:40",0.0,23.3,92.4,1005.2,310.4,0.8,1.8,336.8,0.00,22.0,24.5,"18:38:32",1
"17/09/12","18:50",0.0,23.0,92.4,1005.2,302.2,0.6,1.6,339.1,0.00,21.7,24.4,"18:43:44",1
"17/09/12","19:00",0.0,22.8,92.8,1005.7,344.7,0.8,1.7,16.0,0.00,21.6,24.5,"18:51:20",1
"17/09/12","19:10",0.0,22.7,93.2,1006.0,339.4,0.2,1.1,350.9,0.00,21.6,24.4,"19:00:40",1
"17/09/12","19:20",0.0,22.5,93.3,1006.2,323.5,0.7,1.4,329.5,0.00,21.4,24.4,"19:15:20",1
"17/09/12","19:30",0.0,22.4,93.7,1006.4,307.7,0.3,0.8,234.6,0.00,21.4,24.3,"19:24:00",1
"17/09/12","19:40",0.0,22.4,94.0,1006.4,325.6,0.5,1.3,338.6,0.00,21.4,24.1,"19:33:36",1
"17/09/12","19:50",0.0,22.4,94.0,1006.7,300.3,0.7,1.2,340.6,0.00,21.4,24.3,"19:40:40",1
"17/09/12","20:00",0.0,22.3,94.2,1006.9,336.8,1.0,1.9,353.8,0.00,21.4,24.3,"19:56:40",1
"17/09/12","20:10",0.0,22.1,94.4,1006.9,313.0,0.6,1.1,340.9,0.00,21.2,24.3,"20:08:24",1
"17/09/12","20:20",0.0,22.0,94.4,1007.1,22.3,0.2,0.9,332.4,0.00,21.1,24.1,"20:15:52",1
"17/09/12","20:30",0.0,21.8,94.5,1006.9,346.5,0.5,1.1,323.7,0.00,20.9,24.0,"20:29:52",1
"17/09/12","20:40",0.0,21.7,94.7,1006.9,322.5,0.7,1.2,331.7,0.00,20.9,24.1,"20:36:32",1
"17/09/12","20:50",0.0,21.5,94.9,1007.6,293.5,0.7,1.1,269.9,0.00,20.7,24.0,"20:43:28",1
"17/09/12","21:00",0.0,21.4,94.9,1007.1,336.0,0.8,1.2,334.3,0.00,20.6,24.0,"20:58:16",1
"17/09/12","21:10",0.0,21.3,95.2,1007.1,281.2,0.7,1.3,323.5,0.00,20.5,23.7,"21:06:00",1
"17/09/12","21:20",0.0,21.2,95.1,1007.1,297.6,0.7,1.2,325.2,0.00,20.4,23.7,"21:12:00",1
"17/09/12","21:30",0.0,21.2,95.4,1007.4,286.3,0.6,1.3,321.2,0.00,20.5,23.7,"21:20:08",1
"17/09/12","21:40",0.0,21.2,95.6,1007.1,344.0,0.6,1.6,18.8,0.00,20.5,23.7,"21:33:04",1
"17/09/12","21:50",0.0,21.2,95.6,1007.4,316.6,0.6,1.1,313.1,0.00,20.5,23.7,"21:40:08",1
"17/09/12","22:00",0.0,21.2,95.6,1007.4,340.6,0.7,1.3,330.8,0.00,20.5,23.7,"21:52:48",1
"17/09/12","22:10",0.0,21.2,95.6,1007.4,276.2,0.3,0.9,309.8,0.00,20.5,23.7,"22:00:48",1
"17/09/12","22:20",0.0,21.0,95.6,1007.4,103.4,0.1,0.6,242.5,0.00,20.3,23.5,"22:10:02",1
"17/09/12","22:30",0.0,20.9,95.6,1007.6,327.8,0.8,1.4,356.6,0.00,20.2,23.5,"22:24:16",1
"17/09/12","22:40",0.0,20.8,95.7,1007.6,312.0,0.7,1.6,342.6,0.00,20.1,23.5,"22:36:00",1
"17/09/12","22:50",0.0,20.8,95.8,1008.3,321.4,0.7,1.3,319.4,0.00,20.1,23.4,"22:48:16",1
"17/09/12","23:00",0.0,20.8,96.1,1008.3,348.7,0.6,1.7,346.8,0.00,20.2,23.5,"22:58:24",1
"17/09/12","23:10",0.0,20.9,96.0,1008.1,320.9,0.6,1.4,12.2,0.00,20.3,23.6,"23:00:08",1
"17/09/12","23:20",0.0,20.8,96.0,1008.3,297.9,0.6,1.3,320.6,0.00,20.2,23.2,"23:10:16",1
"17/09/12","23:30",0.0,20.8,96.2,1007.8,319.9,0.6,1.4,345.3,0.00,20.2,23.4,"23:26:00",1
"17/09/12","23:40",0.0,20.8,96.3,1008.1,278.6,0.6,1.1,310.7,0.00,20.2,23.3,"23:34:00",1
"17/09/12","23:50",0.0,20.8,96.2,1008.1,319.7,0.6,1.4,317.3,0.00,20.2,23.4,"23:41:44",1
"17/09/12","24:00",0.0,20.7,96.1,1008.3,277.6,0.3,1.1,265.2,0.00,20.1,23.3,"23:59:52",1
